Flag for Australia Weather past 2 weeks in Mildura, Victoria, Australia

Now
80 °F

Passing clouds.


Feels Like: 78 °F
Forecast: 50 / 77 °F
Wind: 5 mph from Northeast

Location: Mildura Airport

Current Time: Sep 22, 2014 at 4:22:24 PM

Latest Report: Sep 22, 2014 at 3:00 PM


Visibility: 25 mi

Pressure: 30.21 "Hg

Humidity: 12%

Dew point: 23 °F

Location of MilduraLocation

Historic Weather in Mildura — Graph

°F

Mildura temperature yesterday

Maximum temperature yesterday: 73 °F (at 4:00 PM)
Minimum temperature yesterday: 39 °F (at 6:00 AM)
Average temperature yesterday: 57 °F

Past Weeks' High & Low Weather Summary

 TemperatureHumidityPressure
High80 °F (Sep 22, 3:00 PM)96% (Sep 17, 6:00 AM)30.45 "Hg (Sep 17, 6:00 AM)
Low37 °F (Sep 20, 6:00 AM)9% (Sep 22, 2:00 PM)29.60 "Hg (Sep 9, 3:00 PM)
Average58 °F49%30.12 "Hg
* Reported Sep 7 3:00 PM — Sep 22 3:00 PM, Mildura, Weather by CustomWeather, © 2014

Note: Actual official high and low records may vary slightly from our data, if they occured in-between our weather recording intervals... More about our weather records

Advertising

Mildura weather history for previous 24 hours

 ConditionsComfort  
Time TempWeatherWind HumidityBarometerVisibility
3:00 PM
Sep 22
80 °FPassing clouds.5 mph12%30.21 "Hg25 mi
2:00 PM79 °FPleasantly warm.13 mph9%30.24 "HgN/A
1:00 PM78 °FPleasantly warm.13 mph10%30.26 "HgN/A
12:00 PM75 °FSunny.8 mph16%30.29 "Hg25 mi
11:00 AM75 °FMild.8 mph20%30.33 "HgN/A
10:00 AM70 °FMild.6 mph27%30.35 "HgN/A
9:00 AM63 °FSunny.6 mph41%30.36 "Hg25 mi
8:00 AM56 °FRefreshingly cool.8 mph52%30.37 "HgN/A
7:00 AM49 °FCool.7 mph66%30.35 "HgN/A
6:00 AM42 °FClear.No wind83%30.34 "Hg25 mi
5:00 AM46 °FCool.5 mph70%30.32 "HgN/A
4:00 AM46 °FCool.5 mph68%30.31 "HgN/A
3:00 AM49 °FCool.5 mph59%30.32 "HgN/A
2:00 AM51 °FCool.6 mph53%30.34 "HgN/A
1:00 AM50 °FCool.5 mph50%30.36 "HgN/A
12:00 AM53 °FCool.7 mph40%30.36 "HgN/A
11:00 PM
Sep 21
53 °FCool.6 mph41%30.37 "HgN/A
10:00 PM51 °FCool.5 mph44%30.36 "HgN/A
9:00 PM54 °FCool.5 mph40%30.34 "HgN/A
8:00 PM58 °FRefreshingly cool.5 mph31%30.33 "HgN/A
7:00 PM62 °FRefreshingly cool.6 mph35%30.32 "HgN/A
6:00 PM69 °FMild.8 mph16%30.31 "HgN/A
5:00 PM72 °FMild.8 mph14%30.31 "HgN/A
4:00 PM73 °FMild.9 mph15%30.32 "HgN/A
Weather by CustomWeather, © 2014

See weather overviewHow to use our weather pages